Regional Weather Roundup
Issued by NWS

Home | Current Version | Previous Version | Text Only | Print | Product List | Glossary Off
Versions: 1 2 3 4 5 6 7 8 9 10 11 12 13 14 15 16 17 18 19 20 21 22 23 24 25 26 27

000
ASUS45 KPSR 231410
RWRAZ

ARIZONA HOURLY REGIONAL WEATHER ROUNDUP
NATIONAL WEATHER SERVICE PHOENIX AZ
700 AM MST SAT JUL 23 2016

NOTE: FAIR INDICATES FEW OR NO CLOUDS BELOW 12,000 FEET WITH NO
SIGNIFICANT WEATHER AND/OR OBSTRUCTIONS TO VISIBILITY.

AZZ001>003-036-231500-
NORTHWEST ARIZONA

CITY           SKY/WX    TMP DP  RH WIND       PRES   REMARKS
BULLHEAD CITY  SUNNY     91  50  24 CALM      29.80R
KINGMAN        SUNNY     87  46  24 SE5       30.03R
$$

AZZ004>008-015-016-018-231500-
NORTH CENTRAL ARIZONA

CITY           SKY/WX    TMP DP  RH WIND       PRES   REMARKS
GRAND CANYON   SUNNY     64  53  67 NE6       30.31R
WILLIAMS       MOSUNNY   63  52  67 S3        30.39R
PRESCOTT       MOSUNNY   67  56  67 CALM      30.19R
FLAGSTAFF      SUNNY     61  50  67 CALM      30.33R
PAYSON         SUNNY     72  50  46 CALM      30.21R
PAGE           SUNNY     80  49  33 CALM      30.11R
$$

AZZ009>014-017-231500-
NORTHEAST ARIZONA

CITY           SKY/WX    TMP DP  RH WIND       PRES   REMARKS
WINSLOW        MOSUNNY   70  53  54 CALM      30.19R
SAINT JOHNS    SUNNY     66  51  58 SE3       30.24R
SHOW LOW       SUNNY     59  46  63 CALM      30.32R
$$

AZZ023-231500-
GREATER PHOENIX AREA

CITY           SKY/WX    TMP DP  RH WIND       PRES   REMARKS
PHOENIX        PTSUNNY   91  58  32 SE6       29.86R
BUCKEYE        CLOUDY    91  57  31 W3        29.89R
GLENDALE       PTSUNNY   93  55  27 CALM      29.89
LUKE AFB       PTSUNNY   93  56  29 S8        29.87R
DEER VALLEY    MOSUNNY   90  53  28 W5        29.89R
SCOTTSDALE     MOSUNNY   89  55  31 S6        29.91R
MESA-FALCON    PTSUNNY  N/A N/A N/A E6        29.87R
MESA-GATEWAY   MOSUNNY   88  61  40 E6        29.91R
CHANDLER       PTSUNNY   90  63  40 S9        29.88R BLWGDUST
$$

AZZ027-028-231500-
SOUTHWEST MARICOPA COUNTY AND PINAL COUNTY

CITY           SKY/WX    TMP DP  RH WIND       PRES   REMARKS
CASA GRANDE    MOSUNNY   90  61  37 SW6       29.92R
GILA BEND      FAIR      94  58  29 S6        29.84R
$$

AZZ503-504-507>509-231500-
SOUTHEAST ARIZONA

CITY           SKY/WX    TMP DP  RH WIND       PRES   REMARKS
TUCSON         MOSUNNY   85  58  39 S10       30.02R
DAVIS-MONTHAN  PTSUNNY   84  59  42 S8        30.01R
RYAN FIELD     SUNNY     88  57  35 E5        30.01R
NOGALES        SUNNY     73  63  70 S6        30.12R
SIERRA VISTA   SUNNY     76  56  48 W8        30.17R
DOUGLAS        SUNNY     74  60  61 SE8       30.13R
SAFFORD        SUNNY     79  58  48 CALM      30.01R
$$

AZZ020-021-025-026-031-231500-
SOUTHWEST ARIZONA

CITY           SKY/WX    TMP DP  RH WIND       PRES   REMARKS
YUMA           PTSUNNY   88  72  58 S13       29.82R
$$

CAZ031-033-041-043-047-048-061-231500-
SOUTHERN CALIFORNIA

CITY           SKY/WX    TMP DP  RH WIND       PRES   REMARKS
DOWNTOWN L.A.  CLOUDY    73  62  68 CALM      29.81R
L.A. AIRPORT   PTSUNNY   71  63  75 E7        29.82R
SAN DIEGO      MOSUNNY   68  67  96 S5        29.83R
BURBANK        PTSUNNY   76  56  49 CALM      29.83R
ONTARIO        PTSUNNY   74  54  49 CALM      29.85R
RIVERSIDE      MOSUNNY   74  56  53 NE3       29.85R
PALM SPRINGS   SUNNY     90  39  16 N5        29.81R
EL CENTRO NAS  SUNNY     90  72  55 S16       29.79R
IMPERIAL       SUNNY     92  75  57 S17       29.77R HX 103
BLYTHE         CLOUDY    92  65  40 S21       29.82R HAZE
NEEDLES        SUNNY     94  52  24 S3        29.82R
$$

NVZ020-UTZ003-231500-
SOUTHERN NEVADA-UTAH

CITY           SKY/WX    TMP DP  RH WIND       PRES   REMARKS
LAS VEGAS      MOSUNNY   90  30  11 CALM      29.87R
SALT LAKE CITY MOSUNNY   73  36  25 CALM      30.13S
$$

NMZ009-TXZ055-231500-
NEW MEXICO-WEST TEXAS

CITY           SKY/WX    TMP DP  RH WIND       PRES   REMARKS
ALBUQUERQUE    MOSUNNY   72  51  47 S5        30.20R
EL PASO        MOSUNNY   83  47  28 CALM      30.07R
$$


........................KEY........................
SKY/WX - SKY CONDITION/WEATHER
TMP    - TEMPERATURE IN FAHRENHEIT
DP     - DEW POINT IN FAHRENHEIT
RH     - RELATIVE HUMIDITY IN PERCENT
WIND   - DIRECTION AND SPEED IN MILES PER HOUR (MPH)
VRB    - VARIABLE WIND DIRECTION
PRES   - MEAN SEA LEVEL PRESSURE IN INCHES OF MERCURY
         F - FALLING PRESSURE   R - RISING PRESSURE
         S - STEADY PRESSURE
VSB    - VISIBILITY IN MILES
HX     - HEAT INDEX IN FAHRENHEIT
WCI    - WIND CHILL INDEX IN FAHRENHEIT
TC     - TEMPERATURE IN CELSIUS WHICH IS ALSO KNOWN AS
         TEMPERATURE IN CENTIGRADE
AFB    - AIR FORCE BASE
         LUKE AFB IS LUKE AIR FORCE BASE
         DAVIS-MONTHAN IS DAVIS-MONTHAN AIR FORCE BASE
NAS    - NAVAL AIR STATION
         EL CENTRO NAS IS EL CENTRO NAVAL AIR STATION
N/A    - NOT AVAILABLE





USA.gov is the U.S. government's official web portal to all federal, state and local government web resources and services.